This is the latest recevied weather packets stored in our database for station/object SV9TNF-2. If no packets are shown the sender has not sent any weather packets the latest 10 day(s).
| Time | Temp. | Humidity | Pressure | Rain* | Wind** | Luminosity | Snow |
|---|---|---|---|---|---|---|---|
| 1777841105 | 15° C | 58% | 1023.7 hPa | 0 mm | 21.46 m/s, 17° | - | - |
| 1777840805 | 15° C | 61% | 1023.7 hPa | 0 mm | 18.78 m/s, 299° | - | - |
| 1777840505 | 15° C | 60% | 1023.7 hPa | 0 mm | 23.69 m/s, 343° | - | - |
| 1777840205 | 15° C | 59% | 1023.7 hPa | 0 mm | 20.12 m/s, 16° | - | - |
| 1777839904 | 14.44° C | 56% | 1023.7 hPa | 0 mm | 15.2 m/s, 358° | - | - |
| 1777839605 | 14.44° C | 60% | 1023.7 hPa | 0 mm | 15.65 m/s, 47° | - | - |
| 1777839304 | 14.44° C | 65% | 1023.7 hPa | 0 mm | 8.05 m/s, 84° | - | - |
| 1777839004 | 14.44° C | 63% | 1023.7 hPa | 0 mm | 8.94 m/s, 83° | - | - |
| 1777838704 | 14.44° C | 62% | 1023.7 hPa | 0 mm | 8.49 m/s, 40° | - | - |
| 1777838405 | 14.44° C | 62% | 1023.7 hPa | 0 mm | 15.2 m/s, 288° | - | - |
| 1777838104 | 14.44° C | 58% | 1023.7 hPa | 0 mm | 21.01 m/s, 355° | - | - |
| 1777837804 | 14.44° C | 61% | 1023.7 hPa | 0 mm | 7.6 m/s, 12° | - | - |
| 1777837504 | 14.44° C | 61% | 1023.7 hPa | 0 mm | 12.96 m/s, 310° | - | - |
| 1777837204 | 14.44° C | 55% | 1023.7 hPa | 0 mm | 15.2 m/s, 90° | - | - |
| 1777836903 | 14.44° C | 55% | 1023.7 hPa | 0 mm | 10.28 m/s, 55° | - | - |
| 1777836604 | 15° C | 58% | 1023.7 hPa | 0 mm | 21.01 m/s, 15° | - | - |
| 1777836303 | 15° C | 57% | 1023.7 hPa | 0 mm | 12.07 m/s, 359° | - | - |
| 1777836004 | 15° C | 54% | 1023.4 hPa | 0 mm | 28.16 m/s, 16° | - | - |
| 1777835703 | 14.44° C | 55% | 1023.4 hPa | 0 mm | 31.29 m/s, 73° | - | - |
| 1777835403 | 14.44° C | 67% | 1023.4 hPa | 0 mm | 13.41 m/s, 306° | - | - |
| 1777835103 | 14.44° C | 67% | 1023.4 hPa | 0 mm | 16.09 m/s, 21° | - | - |
| 1777834803 | 13.89° C | 64% | 1023.4 hPa | 0 mm | 8.05 m/s, 275° | - | - |
| 1777834503 | 14.44° C | 64% | 1023.4 hPa | 0 mm | 17.43 m/s, 13° | - | - |
| 1777834203 | 13.33° C | 62% | 1023.4 hPa | 0 mm | 12.07 m/s, 317° | - | - |
| 1777833902 | 13.33° C | 67% | 1023.4 hPa | 0 mm | 13.86 m/s, 65° | - | - |
* Rain latest hour (hover to see other rain measurements)
** Current wind speed in m/s (hover to see current wind gust speed)